User: anonymous   Login
Location: Unspecified
(0.0000°N, 0.0000°E)
Time: 23:24:16
(UTC+00:00)
Language:

ORESAT0.5 - Orbit

View from above orbital plane
View from above orbital plane
View from above satellite
View from above satellite

Ground track
Ground track

The orbit is defined by the following mean orbital elements,

1 60525U          26145.50898866 +.00000000 +00000-0 +40978-3 0 00000
2 60525  97.3719 231.1780 0005015  17.0279 343.1136 15.44111998    09
Epoch (UTC): 25 May 2026 12:12:56
Eccentricity: 0.0005015
inclination: 97.3719°
perigee height: 431 km
apogee height: 437 km
right ascension of ascending node: 231.1780°
argument of perigee: 17.0279°
revolutions per day: 15.44111998
mean anomaly at epoch: 343.1136°

The dashed part of the orbit path shows where the satellite is in the earth's shadow,  

DLR